Temp
48 47 46 45 44 44 43 44 44 44 44 44 44 44 44 43 43 43 43 44 45 45
47 46 46 45 44 44 44 46 44 44 43 43 43 44 43 43 43 44 44 45 45 45
47 46 46 45 44 44 44 45 44 43 43 43 43 43 43 42 43 43 44 46 45 46
46 46 45 44 44 44 44 44 44 43 43 42 42 43 42 43 43 43 45 46 45 45
45 45 44 44 44 46 46 46 43 43 43 42 42 42 43 42 45 44 44 44 44 45
44 43 43 43 45 47 47 46 43 43 43 43 43 43 42 43 44 45 45 45 44 44
43 42 42 43 43 46 45 42 42 43 44 44 44 45 45 44 44 44 44 44 44 44
42 42 43 43 42 42 42 43 45 44 44 44 44 45 43 44 43 43 43 43 43 43
42 42 43 43 41 41 42 43 44 43 43 43 44 45 45 44 42 42 42 42 42 42
43 43 43 43 41 41 42 43 41 43 43 42 43 44 44 44 42 41 41 41 41 41
42 42 42 43 43 42 43 42 42 42 42 42 42 44 44 44 41 40 40 41 41 41
42 41 41 42 42 43 43 42 42 42 41 41 41 44 44 43 39 38 39 40 41 41
41 41 41 41 43 43 43 42 42 41 41 42 40 43 43 42 38 36 36 38 40 42
40 40 41 43 43 42 42 42 41 40 40 41 41 41 43 43 37 36 37 38 38 40
MSLP
1018.17 1018.51 1018.75 1019.14 1019.54 1019.75 1020.03 1020.16 1020.30 1020.48 1020.62 1020.78 1020.83 1020.86 1020.95 1021.08 1020.99 1021.03 1021.24 1021.36 1021.45 1021.68
1017.80 1018.20 1018.41 1018.62 1018.80 1019.01 1019.31 1019.59 1019.88 1020.15 1020.34 1020.40 1020.52 1020.73 1020.80 1020.91 1020.85 1020.82 1021.06 1021.20 1021.19 1021.54
1017.40 1017.75 1017.98 1018.11 1018.40 1018.73 1019.03 1019.33 1019.61 1019.90 1020.12 1020.31 1020.34 1020.49 1020.74 1020.79 1020.73 1020.97 1021.14 1021.16 1021.16 1021.52
1017.17 1017.47 1017.58 1017.87 1018.14 1018.41 1018.74 1018.97 1019.28 1019.61 1019.92 1020.15 1020.30 1020.40 1020.57 1020.63 1020.55 1020.79 1021.00 1020.93 1021.27 1021.52
1016.70 1017.06 1017.33 1017.54 1017.79 1018.13 1018.40 1018.70 1019.00 1019.33 1019.67 1019.92 1020.15 1020.32 1020.35 1020.50 1020.65 1020.73 1020.96 1021.11 1021.03 1021.41
1016.56 1016.91 1016.99 1017.16 1017.53 1017.86 1018.12 1018.47 1018.88 1019.35 1019.60 1019.72 1019.92 1020.01 1020.22 1020.35 1020.47 1020.55 1020.69 1020.98 1021.07 1021.31
1016.36 1016.50 1016.72 1017.08 1017.33 1017.80 1018.15 1018.48 1018.80 1019.00 1019.25 1019.35 1019.63 1019.92 1019.98 1020.12 1020.13 1020.29 1020.59 1020.81 1021.01 1021.16
1016.02 1016.31 1016.67 1017.03 1017.42 1017.78 1018.10 1018.39 1018.63 1018.89 1019.16 1019.41 1019.43 1019.56 1019.75 1020.05 1020.12 1020.39 1020.59 1020.81 1020.98 1021.06
1016.00 1016.33 1016.62 1017.04 1017.44 1017.71 1018.02 1018.27 1018.48 1018.82 1019.24 1019.47 1019.64 1019.81 1019.82 1019.82 1020.06 1020.44 1020.66 1020.80 1020.90 1020.97
1015.79 1016.15 1016.48 1016.97 1017.47 1017.78 1018.08 1018.39 1018.54 1018.73 1018.87 1019.16 1019.29 1019.60 1019.97 1019.89 1020.35 1020.57 1020.74 1020.83 1020.84 1020.98
1015.80 1016.11 1016.39 1016.80 1017.21 1017.57 1017.78 1018.00 1018.27 1018.51 1018.84 1019.09 1019.50 1019.32 1019.81 1019.97 1020.45 1020.74 1020.81 1020.74 1020.74 1020.85
1015.66 1016.03 1016.45 1016.72 1017.00 1017.35 1017.66 1017.79 1017.98 1018.26 1018.60 1018.74 1019.19 1019.31 1019.72 1019.91 1020.35 1020.71 1020.71 1020.69 1020.73 1020.78
1015.48 1015.94 1016.27 1016.56 1016.78 1016.79 1016.96 1017.32 1017.50 1018.05 1018.40 1018.65 1018.93 1019.23 1019.65 1019.93 1020.39 1020.72 1020.77 1020.80 1020.81 1020.80
1015.32 1015.68 1015.96 1016.13 1016.49 1016.75 1016.81 1017.24 1017.48 1017.67 1018.21 1018.54 1018.80 1019.19 1019.60 1019.95 1020.36 1020.61 1020.73 1020.74 1020.77 1020.76
Wind_Speed
7 4 4 5 4 4 4 4 4 5 5 4 4 3 3 2 2 2 2 3 2 1
5 6 5 6 4 4 4 4 5 6 5 5 5 4 4 3 3 3 3 4 4 3
6 6 6 4 5 5 4 5 5 6 6 5 5 4 4 3 3 3 2 2 4 3
5 5 4 4 5 5 4 5 6 6 5 5 5 5 4 4 4 4 4 3 4 4
3 3 4 5 5 4 5 4 6 6 5 5 5 5 5 5 4 4 4 4 4 5
3 4 4 5 5 5 5 5 5 5 5 5 5 5 4 5 4 3 4 5 5 5
4 4 4 4 4 4 4 6 6 6 5 5 5 3 4 3 3 3 4 5 4 5
3 3 4 4 5 5 5 5 5 5 4 3 3 3 3 3 3 3 2 3 3 4
5 5 5 4 5 5 6 6 6 5 4 3 2 3 5 4 2 1 2 3 3 3
5 5 5 4 5 5 5 4 5 5 5 4 4 6 2 6 2 0 2 3 3 3
4 4 4 5 6 5 5 6 5 4 4 4 3 5 7 7 4 3 4 4 4 4
5 4 5 5 5 4 5 5 5 4 5 5 4 8 7 2 4 3 3 3 3 4
4 4 5 5 5 5 5 6 5 5 5 7 5 9 6 4 3 3 3 2 2 4
4 4 4 4 3 4 4 4 4 5 5 5 6 5 7 8 3 3 2 2 2 2
Wind_Direction
205 203 202 203 207 213 211 216 211 214 209 210 206 198 187 187 188 170 156 152 131 115
206 213 218 215 206 211 210 215 216 210 205 203 196 199 190 192 187 163 174 166 143 127
209 219 225 200 223 221 226 211 206 201 200 198 199 195 192 197 183 172 182 172 137 129
215 225 222 218 224 219 208 205 204 196 189 192 193 196 188 199 182 187 196 159 173 172
212 215 215 219 227 205 215 191 193 185 186 187 192 193 196 195 186 179 190 199 170 200
206 211 219 218 211 185 175 172 165 169 181 182 187 181 192 193 187 192 197 202 185 190
202 204 204 206 192 174 156 157 170 179 176 168 167 184 186 187 192 176 208 199 193 203
177 177 187 186 170 169 167 172 156 143 141 155 161 185 191 197 180 178 195 188 182 209
164 173 183 165 175 167 166 159 153 157 158 179 221 196 224 182 169 197 224 215 190 184
177 179 172 163 169 174 171 155 166 167 171 189 175 177 159 135 115 199 289 258 178 177
186 185 163 168 177 171 168 173 171 170 171 160 183 204 218 203 159 236 254 236 208 182
190 180 179 191 186 181 175 181 179 167 176 173 191 213 227 175 153 205 236 226 209 179
190 193 196 200 198 190 188 194 168 171 177 194 183 191 204 176 154 197 205 215 211 192
196 206 211 199 175 178 177 175 172 167 170 176 166 170 202 162 160 195 188 181 176 217